Location: Buchberg
(46.9333°N, 15.8500°E)
Time: 09:45:31
(UTC+00:00)

Lacrosse 5 - Pass Details

Date: 14 July 2020
Orbit: 717 x 720 km, 57.0° (Epoch: 04 August)

Event Time Altitude Azimuth Distance (km) Brightness Sun altitude
Rises 01:51:06 0° 281° (WNW) 3,124 4.9 -11.6°
Reaches altitude 10° 01:53:49 10° 294° (WNW) 2,205 4.2 -11.3°
Maximum altitude 01:58:08 27° 352° (N) 1,363 3.8 -10.8°
Drops below altitude 10° 02:02:28 10° 51° (NE) 2,209 5.9 -10.4°
Sets 02:05:11 0° 63° (ENE) 3,130 6.7 -10.0°
